Content
SEND FEEDBACK

Daily
Averages
Monthly
Summary
United States of America

ST. LOUIS, MISSOURI


Home > North America > United States > Missouri
Elevation: 163 meters     Latitude: 38 45N     Longitude: 090 22W

WEATHER
 
SELECT A DAY
Number of Records: 196,477;   Date Range: 1/1/95 - 8/28/14
 
SHARE

PRINT THIS DATA

[ ← Previous Day ]
WEATHER ALMANAC - 17 JANUARY, 2013
[ Next Day → ]
[ °F ]   °C
Weather ElementAverageHighLow
Temperature0.1 °C5.6 °C (1:54 pm)-5.6 °C (11:54 pm)
Dewpoint-5.8 °C-1.7 °C (9:54 am)-8.9 °C (2:54 pm)
Humidity67.4 %85 % (2:54 am)35 % (2:54 pm)
Barometer1028.8 hPa1033.5 hPa (9:54 pm)1022 hPa (1:54 am)
Wind Speed8.9 km/h22.2 km/h (2:54 pm)
Weather ElementAverage
Visibility16.1 km
Wind DirectionSSE (170.4 °)

Weather ElementTotal
Precipitation---
Heating Degree Days18.3 (Base 18.3)
Averaged from 25 records on 17 January, 2013
WEATHER CONDITIONS BREAKOUT
WIND DIRECTION BREAKOUT
WEATHER BY HOUR - 17 JANUARY, 2013
[ °F ]   °C
Local TimeTemperatureDewpointHumidityBarometerVisibilityWind DirectionWind SpeedGust SpeedPrecipitationEventsConditions
1:54 AM0 °C-4.4 °C73 %1022 hPa16.1 kmCalmOvercast
2:54 AM-2.2 °C-4.4 °C85 %1022.7 hPa16.1 kmWest (260°)5.6 km/hClear
3:54 AM-2.8 °C-5.6 °C81 %1023.4 hPa16.1 kmCalmPartly Cloudy
4:54 AM-1.7 °C-5.6 °C75 %1023.7 hPa16.1 kmWest (270°)9.3 km/hClear
5:54 AM-3.9 °C-6.1 °C85 %1024.7 hPa16.1 kmWSW (250°)5.6 km/hClear
6:54 AM-2.2 °C-5.6 °C78 %1025.7 hPa16.1 kmCalmClear
7:54 AM-0.6 °C-3.9 °C79 %1026.8 hPa16.1 kmNorth (360°)7.4 km/hClear
8:41 AM1 °C-2 °C81 %1027.4 hPa16.1 kmNorth (360°)7.4 km/hMostly Cloudy
8:54 AM1.1 °C-2.2 °C79 %1028.8 hPa16.1 kmNorth (10°)13 km/hOvercast
9:54 AM2.2 °C-1.7 °C76 %1029.5 hPa16.1 kmNE (40°)11.1 km/hMostly Cloudy
10:54 AM2.8 °C-3.3 °C65 %1029.5 hPa16.1 kmNNW (340°)20.4 km/hMostly Cloudy
11:22 AM3 °C-4 °C60 %1028.4 hPa16.1 kmNNW (330°)18.5 km/hPartly Cloudy
11:54 AM3.9 °C-5 °C53 %1029.1 hPa16.1 kmNorth (10°)16.7 km/hPartly Cloudy
12:54 PM5 °C-5.6 °C47 %1028.4 hPa16.1 kmNorth (350°)18.5 km/hClear
1:54 PM5.6 °C-6.7 °C41 %1028.4 hPa16.1 kmNNW (330°)16.7 km/hClear
2:54 PM5.6 °C-8.9 °C35 %1029.1 hPa16.1 kmNNW (330°)22.2 km/hClear
3:54 PM5 °C-8.9 °C36 %1029.8 hPa16.1 kmNorth (350°)18.5 km/hClear
4:54 PM2.8 °C-8.9 °C42 %1030.8 hPa16.1 kmNNW (330°)16.7 km/hClear
5:54 PM1.7 °C-7.8 °C50 %1031.8 hPa16.1 kmNNW (340°)13 km/hClear
6:54 PM-1.7 °C-7.8 °C64 %1032.5 hPa16.1 kmCalmClear
7:54 PM-3.3 °C-7.2 °C75 %1032.8 hPa16.1 kmCalmClear
8:54 PM-4.4 °C-7.2 °C81 %1033.2 hPa16.1 kmCalmClear
9:54 PM-4.4 °C-7.8 °C77 %1033.5 hPa16.1 kmCalmClear
10:54 PM-5 °C-7.8 °C81 %1033.5 hPa16.1 kmCalmClear
11:54 PM-5.6 °C-7.8 °C85 %1033.5 hPa16.1 kmCalmClear
Hourly data recorded from KSUS, located 0 kilometers away from St. Louis, Missouri







STORIES FROM OUR PARTNERS